Regional Weather Roundup
Issued by NWS San Angelo, TX

Home | Current Version | Previous Version | Text Only | Print | Product List | Glossary On
Versions: 1 2 3 4 5 6 7 8 9 10 11 12 13 14 15 16 17 18 19 20 21 22 23 24 25 26 27 28 29 30 31 32 33 34 35 36 37 38 39 40 41 42 43 44 45 46 47 48 49 50
000
ASUS44 KSJT 281811
RWRSJT
WEST CENTRAL TEXAS REGIONAL WEATHER ROUNDUP
NATIONAL WEATHER SERVICE SAN ANGELO TX
100 PM CDT SAT MAY 28 2016

NOTE: "FAIR" INDICATES FEW OR NO CLOUDS BELOW 12,000 FEET WITH NO
SIGNIFICANT WEATHER AND/OR OBSTRUCTIONS TO VISIBILITY.

TXZ049-054-064>066-071>073-076>078-098-099-113-114-127-128-139-140-
154-155-168>170-281900
...LOCATIONS ACROSS WEST CENTRAL TEXAS...

CITY           SKY/WX    TMP DP  RH WIND       PRES   REMARKS
SAN ANGELO     SUNNY     83  70  64 SW13G18   29.97S
ABILENE        SUNNY     86  63  45 SW7       29.96F
DYESS AFB      MOSUNNY   87  58  38 W5        29.95S
JUNCTION       PTSUNNY   86  68  54 S15       29.97F
SWEETWATER     SUNNY     86  50  29 S8G16     30.01S
BROWNWOOD      SUNNY     84  72  65 S12       29.96F
COLEMAN        CLEAR     84  68  57 SW7       29.98S
SONORA         MOSUNNY   84  66  54 SE8G20    30.02F
OZONA          FAIR      82  64  54 S12G17    30.01F
BRADY          NOT AVBL
$$

TEXAS PANHANDLE/OKLAHOMA PANHANDLE

CITY           SKY/WX    TMP DP  RH WIND       PRES   REMARKS
AMARILLO       SUNNY     74  44  34 SW3       30.06S
BORGER         SUNNY     76  45  33 VRB6      30.04S
CANADIAN       SUNNY     76  49  38 N6        30.01S
DALHART        SUNNY     72  46  39 VRB5      30.08S
DUMAS          CLEAR     75  43  31 CALM      30.06S
GUYMON         NOT AVBL
HEREFORD       CLEAR     78  41  26 E5        30.06F
PAMPA          CLEAR     74  47  37 N5        30.05F
PERRYTON       SUNNY     77  46  32 NW8       30.02S
$$

SOUTHERN PANHANDLE/SOUTH PLAINS/ROLLING PLAINS

CITY           SKY/WX    TMP DP  RH WIND       PRES   REMARKS
LUBBOCK        SUNNY     77  44  30 VRB7      30.03F
SNYDER           N/A     82  48  30 CALM      29.99F
CHILDRESS      SUNNY     78  49  35 N7        30.00S
SEMINOLE       CLEAR     85  31  14 SW6       30.03S
$$

PERMIAN BASIN

CITY           SKY/WX    TMP DP  RH WIND       PRES   REMARKS
MIDLAND        SUNNY     93  23   8 S12G24    29.97F
ODESSA         SUNNY     91  22   8 S12G23    29.99F
WINK           SUNNY     89  19   7 S9        29.96S
$$

FAR WEST/SOUTHWEST MOUNTAINS/TRANS PECOS

CITY           SKY/WX    TMP DP  RH WIND       PRES   REMARKS
ALPINE         CLEAR     85  18   8 E14       30.10F
DRYDEN           N/A     81  68  64 E10G20    29.96F
EL PASO        SUNNY     83  18   9 S8        30.01S
FORT STOCKTON  NOT AVBL
GUADALUPE PASS NOT AVBL
MARFA          SUNNY     83  18   9 VRB5      30.08F
PECOS          CLEAR     87  19   8 S3        29.96F
$$

DALLAS/FORT WORTH METROPLEX

CITY           SKY/WX    TMP DP  RH WIND       PRES   REMARKS
DFW AIRPORT    PTSUNNY   78  68  71 SW9       29.96S
FTW MEACHAM    CLOUDY    80  69  69 S12G20    29.96S
DAL-EXECUTIVE  CLOUDY    75  68  78 S5        29.97S
GRAND PRAIRIE  NOT AVBL
ADDISON        CLOUDY    75  66  73 S12       29.99S
MESQUITE       CLOUDY    77  70  78 E6        29.98
LANCASTER      CLOUDY    74  67  77 SW7       29.99S
$$

NORTH CENTRAL TEXAS

CITY           SKY/WX    TMP DP  RH WIND       PRES   REMARKS
SHRMAN/DENISON CLEAR     76  63  63 S8        29.97F
GAINESVILLE    MOSUNNY   79  69  71 S9        29.97F
BRIDGEPORT     CLEAR     83  70  64 S7        29.96S
DENTON         PTSUNNY   78  68  71 S10       29.95F
WAXAHACHIE     CLOUDY    74  71  89 SE3       29.98F
GRANBURY       CLOUDY    81  70  69 S9        29.98S
$$

WESTERN NORTH TEXAS

CITY           SKY/WX    TMP DP  RH WIND       PRES   REMARKS
WICHITA FALLS  SUNNY     80  66  62 VRB5      29.95S
VERNON         CLEAR     80  54  41 NE5       29.97S
BRECKENRIDGE   CLEAR     87  65  49 SW7       29.95S HAZE
COMANCHE       SUNNY     84  74  71 S5        29.97F
$$

CENTRAL AND SOUTH CENTRAL TEXAS

CITY           SKY/WX    TMP DP  RH WIND       PRES   REMARKS
AUSTIN/BERGSTM PTSUNNY   87  76  69 S13       29.94F
WACO           CLOUDY    82  71  69 SW10      29.97R
HILLSBORO      CLOUDY    82  72  71 S9        29.97S
TEMPLE         CLOUDY    82  75  79 S14       29.96F
KILLEEN-GRAY   PTSUNNY   85  74  69 S16G22    29.95F
FORT HOOD      CLOUDY    84  75  75 S12       29.94F
GEORGETOWN     CLOUDY    84  73  70 S16       29.95
LAGO VISTA     FAIR      87  73  63 S10       29.98S
SAN MARCOS     PTSUNNY   86  75  70 S15       29.96S
NEW BRAUNFELS  PTSUNNY   87  73  62 S10       29.94F
RANDOLPH AFB   PTSUNNY   87  76  69 S12       29.94F
SAN ANTONIO    PTSUNNY   88  74  63 S14       29.95F
STINSON        MOSUNNY   91  74  57 SE13      29.92S
PLEASANTON     NOT AVBL
LA GRANGE        N/A     87  76  70 S7        29.94S
GIDDINGS       MOCLDY    84  73  67 S7        30.00S
$$

EAST TEXAS

CITY           SKY/WX    TMP DP  RH WIND       PRES   REMARKS
PARIS          MOSUNNY   77  61  57 SW3       30.00F
CLARKSVILLE    NOT AVBL
TYLER          CLOUDY    77  67  71 NW3       30.00S
LONGVIEW       PTSUNNY   79  70  74 W9        29.99S
PALESTINE      CLOUDY    76  71  83 CALM      30.00S
NACOGDOCHES    PTSUNNY   81  73  78 W5        29.98F
$$

TEXAS HILL COUNTRY AND EDWARDS PLATEAU

CITY           SKY/WX    TMP DP  RH WIND       PRES   REMARKS
LLANO          PTCLDY    88  75  66 S9G17     29.99F
HORSESHOE BAY  MOCLDY    86  72  62 S8        29.97S
KERRVILLE      CLOUDY    82  75  80 S12       30.00S
FREDERICKSBRG  CLOUDY    81  70  68 S10       29.99S
ROCKSPRINGS    PTCLDY    82  70  65 S13G21    30.02F
HONDO          MOSUNNY   88  76  67 SE10      29.96S
UVALDE         MOCLDY    86  74  67 SE12      29.93F
DEL RIO        PTSUNNY   86  70  58 SE14G21   29.91F
$$

SOUTHEAST TEXAS

CITY           SKY/WX    TMP DP  RH WIND       PRES   REMARKS
COLLEGE STN    CLOUDY    84  74  71 S13       29.97S
CALDWELL       MOCLDY    84  73  70 S12G20    29.99F
CROCKETT       MOCLDY    82  73  74 W8        30.01S
BRENHAM        CLOUDY    87  75  66 S10       29.98S
HUNTSVILLE       N/A     86  73  65 SW8       29.98S
CONROE         SUNNY     87  71  58 S10       29.98S
HOUSTON BUSH   MOSUNNY   86  70  58 SW8       29.97S
HOUSTON HOBBY  MOSUNNY   88  69  53 S9        29.96F
PERLAND        SUNNY     89  66  46 S9        29.98F
WHARTON        CLEAR     87  72  60 S15       29.97F
$$

THE UPPER TEXAS COAST

CITY           SKY/WX    TMP DP  RH WIND       PRES   REMARKS
ORANGE         CLEAR     86  66  52 SE3       30.01R
PORT ARTHUR    SUNNY     88  64  44 S8        29.98S
GALVESTON      SUNNY     82  76  81 S9        29.99S
ANGLETON       SUNNY     86  72  62 S16       29.97S
BAY CITY       CLEAR     86  73  65 S13       29.97F
$$

TEXAS COASTAL BEND, RIO GRANDE PLAINS DEEP SOUTH TEXAS

CITY           SKY/WX    TMP DP  RH WIND       PRES   REMARKS
VICTORIA       PTSUNNY   86  73  65 S17       29.96S
BEEVILLE       MOCLDY    88  78  73 SE14      29.94S
ROCKPORT       SUNNY     86  73  65 SE16G25   29.94R
PORT ARANSAS   CLEAR     85  75  73 S20G25    29.94S
PORT LAVACA    MOCLDY    86  74  68 S18       29.96S
CORPUS CHRISTI PTSUNNY   86  75  69 SE21G28   29.93S
KINGSVILLE NAS PTSUNNY   88  79  74 SE20      29.91F
COTULLA        MOSUNNY   92  71  50 S13G20    29.90F
LAREDO         PTSUNNY   91  74  57 SE16G23   29.89S
BROWNSVILLE    MOSUNNY   88  75  65 SE21G30   29.90F
PORT ISABEL    PTSUNNY   89  76  65 SE22G29   29.89F
HEBBRONVILLE   CLOUDY    89  72  55 SE12G20   29.91F
MCALLEN        PTSUNNY   92  75  57 SE18G24   29.87F
WESLACO        PTSUNNY   91  74  57 SE16G25   29.87F
FALFURRIAS     PTCLDY    90  74  59 SE15G21   29.89F
EDINBURG       MOCLDY    92  74  54 SE18G26   29.87F
$$



USA.gov is the U.S. government's official web portal to all federal, state and local government web resources and services.